Kaktovik, AK

1:47 AM AKDT on July 26, 2016 (GMT -0800)
Barter Island LRRS

Weather History for PABA - November, 2012

Change the Weather History Date:

Tuesday, November 13, 2012

  Actual Average Record
Temperature  
Mean Temperature 14 °F -  
Max Temperature 10 °F 10 °F 24 °F (1997)
Min Temperature 10 °F 0 °F -14 °F (2005)
Degree Days  
Heating Degree Days 52    
Moisture  
Dew Point 13 °F    
Average Humidity 100    
Maximum Humidity 100    
Minimum Humidity 100    
Precipitation  
Precipitation 0.00 in - - ()
Sea Level Pressure  
Sea Level Pressure 30.03 in    
Wind  
Wind Speed 38 mph (WNW)    
Max Wind Speed 55 mph    
Max Gust Speed 63 mph    
Visibility 1 miles    
Events Fog , Snow    
Averages and records for this station are not official NWS values.
T = Trace of Precipitation, MM = Missing Value Source: NWS Daily Summary

Daily Weather History Graph

Daily Weather History Graph

Search for Another Location

Airport or City:

Trip Planner

Search our weather history database for the weather conditions in past years. The results will help you decide how hot, cold, wet, or windy it might be!

Date:

Astronomy

Nov. 13, 2012 Rise Set
Actual Time 10:18 AM AKST 2:17 PM AKST
Civil Twilight 8:42 AM AKST 3:53 PM AKST
Nautical Twilight 7:20 AM AKST 5:15 PM AKST
Astronomical Twilight 6:07 AM AKST 6:28 PM AKST
Moon 10:41 AM AKST (11/13) 1:37 PM AKST (11/13)
Length of Visible Light 7h 11m
Length of Day
3h 59m
Waning Crescent, 0% of the Moon is Illuminated
Nov 13
Waning Crescent
Nov 13
New
Nov 20
First Quarter
Nov 28
Full
Dec 6
Last Quarter

Hourly Weather History & Observations

Time (AKST) Temp. Windchill Dew Point Humidity Pressure Visibility Wind Dir Wind Speed Gust Speed Precip Events Conditions
12:01 AM 16.0 °F -6.3 °F - N/A% 30.00 in 0.5 mi West 39.1 mph 46.0 mph 0.00 in Snow Snow
12:10 AM 15.8 °F -6.8 °F - N/A% 30.01 in 0.8 mi West 40.3 mph 48.3 mph 0.00 in Snow Light Snow
12:23 AM 17.6 °F -4.3 °F - N/A% 30.02 in 1.0 mi West 40.3 mph 47.2 mph 0.00 in Snow Light Snow
12:37 AM 17.6 °F -4.7 °F - N/A% 30.02 in 1.2 mi West 42.6 mph 47.2 mph 0.00 in Snow Light Snow
12:41 AM 17.6 °F -4.1 °F - N/A% 30.02 in 0.8 mi West 39.1 mph 47.2 mph 0.00 in Snow Light Snow
12:51 AM 17.6 °F -2.8 °F - N/A% 30.02 in 0.5 mi WNW 33.4 mph 42.6 mph 0.00 in Snow Snow
1:01 AM 17.6 °F -1.3 °F - N/A% 30.02 in 0.8 mi NW 27.6 mph 34.5 mph 0.00 in Snow Light Snow
1:07 AM 17.1 °F -2.7 °F 17.1 °F 100% 30.04 in 0.8 mi NW 29.9 mph 38.0 mph 0.00 in Snow Light Snow
1:13 AM 15.8 °F -5.5 °F 15.8 °F 100% 30.04 in 1.2 mi NW 34.5 mph 38.0 mph 0.00 in Snow Light Snow
1:31 AM 15.8 °F -4.1 °F 15.8 °F 100% 30.04 in 1.8 mi NW 28.8 mph 40.3 mph 0.00 in Snow Light Snow
1:38 AM 15.8 °F -5.0 °F 15.8 °F 100% 30.05 in 2.0 mi NW 32.2 mph 38.0 mph 0.00 in Snow Light Snow
1:44 AM 15.8 °F -5.0 °F 15.8 °F 100% 30.06 in 1.8 mi NW 32.2 mph 39.1 mph 0.00 in Snow Light Snow
2:01 AM 15.8 °F -4.7 °F 15.8 °F 100% 30.07 in 1.2 mi WNW 31.1 mph 36.8 mph 0.00 in Snow Light Snow
2:18 AM 14.0 °F -6.2 °F 14.0 °F 100% 30.07 in 3.0 mi WNW 27.6 mph 35.7 mph 0.00 in Snow Light Snow
2:28 AM 12.9 °F -7.6 °F 12.9 °F 100% 30.07 in 4.0 mi WNW 27.6 mph 35.7 mph 0.00 in Snow Light Snow
2:42 AM 12.2 °F -9.3 °F 12.2 °F 100% 30.08 in 3.0 mi WNW 29.9 mph 36.8 mph 0.00 in Snow Light Snow
3:01 AM 12.9 °F -7.6 °F 12.9 °F 100% 30.07 in 3.0 mi WNW 27.6 mph 34.5 mph 0.00 in Snow Light Snow
3:10 AM 12.2 °F -10.5 °F 12.2 °F 100% 30.08 in 2.0 mi West 34.5 mph 40.3 mph 0.00 in Snow Light Snow
3:28 AM 12.2 °F -10.8 °F 12.2 °F 100% 30.08 in 1.8 mi WNW 35.7 mph 43.7 mph 0.00 in Snow Light Snow
4:01 AM 14.0 °F -8.5 °F 14.0 °F 100% 30.08 in 1.2 mi West 36.8 mph 44.9 mph 0.00 in Snow Light Snow
4:17 AM 14.0 °F -9.8 °F 14.0 °F 100% 30.08 in 1.0 mi West 42.6 mph 48.3 mph 0.00 in Snow Light Snow
4:24 AM 12.2 °F -12.3 °F 12.2 °F 100% 30.08 in 0.8 mi West 42.6 mph 48.3 mph 0.00 in Snow Light Snow
4:31 AM 12.9 °F -10.3 °F 12.9 °F 100% 30.08 in 0.8 mi West 38.0 mph 48.3 mph 0.00 in Snow Light Snow
4:36 AM 12.2 °F -11.3 °F 12.2 °F 100% 30.07 in 0.5 mi West 38.0 mph 46.0 mph 0.00 in Fog , Snow Snow
4:46 AM 12.2 °F -12.5 °F 12.2 °F 100% 30.09 in 0.5 mi West 43.7 mph 49.5 mph 0.00 in Fog , Snow Snow
4:49 AM 12.2 °F -11.6 °F 12.2 °F 100% 30.08 in 0.5 mi West 39.1 mph 49.5 mph 0.00 in Fog , Snow Snow
5:01 AM 12.2 °F -11.8 °F 12.2 °F 100% 30.08 in 0.5 mi West 40.3 mph 47.2 mph 0.00 in Fog , Snow Snow
5:39 AM 12.2 °F -13.2 °F 12.2 °F 100% 30.07 in 0.2 mi West 47.2 mph 54.1 mph 0.00 in Fog , Snow Heavy Snow
5:48 AM 12.2 °F -13.7 °F 12.2 °F 100% 30.09 in 0.5 mi West 49.5 mph 56.4 mph 0.00 in Fog , Snow Snow
6:01 AM 12.2 °F -13.0 °F 12.2 °F 100% 30.08 in 0.2 mi West 46.0 mph 52.9 mph 0.00 in Fog , Snow Heavy Snow
7:01 AM 12.9 °F -12.4 °F 12.9 °F 100% 30.06 in 0.2 mi West 48.3 mph 54.1 mph 0.00 in Fog , Snow Heavy Snow
7:48 AM 12.2 °F -12.8 °F 12.2 °F 100% 30.03 in 0.5 mi West 44.9 mph 52.9 mph 0.00 in Fog , Snow Snow
8:01 AM 12.9 °F -11.3 °F 12.9 °F 100% 30.03 in 0.5 mi West 42.6 mph 56.4 mph 0.00 in Fog , Snow Snow
8:41 AM 12.2 °F - 12.2 °F 100% - - North - - 0.00 in   Unknown
9:01 AM 12.9 °F -12.0 °F 12.9 °F 100% 30.03 in - West 46.0 mph - 0.00 in   Unknown
10:01 AM 12.9 °F -12.4 °F 12.9 °F 100% 30.03 in - West 48.3 mph 58.7 mph N/A   Unknown
11:01 AM 12.9 °F -12.6 °F 12.9 °F 100% 30.01 in - West 49.5 mph 62.1 mph N/A   Unknown
12:01 PM 12.0 °F -14.5 °F 12.0 °F 100% 30.01 in - West 52.9 mph 63.3 mph N/A   Unknown
1:01 PM 12.9 °F -13.6 °F 12.9 °F 100% 30.01 in - West 55.2 mph 62.1 mph N/A   Unknown
2:01 PM 12.9 °F -12.6 °F 12.9 °F 100% 29.98 in - West 49.5 mph 62.1 mph N/A   Unknown
3:01 PM 12.9 °F -11.8 °F 12.9 °F 100% 29.97 in - West 44.9 mph 59.8 mph N/A   Unknown
4:01 PM 12.9 °F -12.6 °F 12.9 °F 100% 29.97 in - West 49.5 mph 59.8 mph N/A   Unknown
5:01 PM 12.9 °F -12.2 °F 12.9 °F 100% 29.94 in - West 47.2 mph 55.2 mph N/A   Unknown
6:01 PM 12.0 °F -12.6 °F 12.0 °F 100% 29.94 in - West 42.6 mph 55.2 mph N/A   Unknown
7:01 PM 12.0 °F -12.1 °F 12.0 °F 100% 29.93 in - West 40.3 mph 48.3 mph N/A   Unknown
8:01 PM 12.0 °F -11.3 °F 12.0 °F 100% 29.94 in - West 36.8 mph 46.0 mph N/A   Unknown
9:01 PM 12.0 °F -11.3 °F 12.0 °F 100% 29.95 in - West 36.8 mph 44.9 mph N/A   Unknown
10:01 PM 12.0 °F -9.5 °F 12.0 °F 100% 29.97 in - WNW 29.9 mph 39.1 mph N/A   Unknown
10:37 PM 10.4 °F -12.3 °F 10.4 °F 100% 29.97 in 1.8 mi WNW 32.2 mph 38.0 mph 0.00 in Snow Light Snow
10:53 PM 10.4 °F -4.1 °F 10.4 °F 100% 29.95 in 2.0 mi NW 11.5 mph - 0.00 in Snow Light Snow
11:01 PM 10.0 °F -8.6 °F 10.0 °F 100% 29.96 in 2.0 mi NW 19.6 mph 24.2 mph 0.00 in Snow Light Snow
11:24 PM 10.4 °F -5.4 °F 10.4 °F 100% 29.96 in 3.0 mi North 13.8 mph 21.9 mph 0.00 in Snow Light Snow